Location: Fort McMurray
(56.7330°N, 111.3830°W)
Time: 05:17:26
(UTC-07:00)

ISS - Visible Passes

Search period start: 23 January 2019 00:00
Search period end: 02 February 2019 00:00
Orbit: 404 x 411 km, 51.6° (Epoch: 23 January)

Date Brightness Start Highest point End Pass type
(mag) Time Alt. Az. Time Alt. Az. Time Alt. Az.
24 Jan -1.2 19:07:47 10° S 19:08:25 12° S 19:08:25 12° S visible
25 Jan -1.3 18:18:04 10° SSE 18:18:34 10° SE 18:19:05 10° SE visible
25 Jan -0.9 19:51:30 10° SW 19:52:01 13° SW 19:52:01 13° SW visible
26 Jan -2.0 19:00:32 10° SSW 19:02:49 21° SSE 19:02:49 21° SSE visible
27 Jan -1.7 18:09:46 10° SSW 18:11:55 16° SSE 18:13:35 12° ESE visible
27 Jan -1.5 19:44:51 10° SW 19:46:18 21° SW 19:46:18 21° SW visible
28 Jan -2.5 18:53:42 10° SW 18:56:35 28° SSE 18:57:01 27° SSE visible
28 Jan -0.4 20:29:38 10° WSW 20:29:43 11° WSW 20:29:43 11° WSW visible
29 Jan -2.1 18:02:38 10° SW 18:05:19 23° SSE 18:07:42 12° ESE visible
29 Jan -2.1 19:38:19 10° WSW 19:40:24 28° SW 19:40:24 28° SW visible
30 Jan -2.6 18:47:02 10° WSW 18:50:03 33° S 18:51:04 26° SE visible
30 Jan -0.7 20:23:14 10° WSW 20:23:47 13° WSW 20:23:47 13° WSW visible
31 Jan -2.3 17:55:48 10° SW 17:58:44 30° SSE 18:01:41 10° ESE visible
31 Jan -2.3 19:31:50 10° WSW 19:34:27 30° SSW 19:34:27 30° SSW visible
01 Feb -2.5 18:40:28 10° WSW 18:43:29 33° S 18:45:07 21° SE visible
01 Feb -0.9 20:16:55 10° WSW 20:17:50 15° WSW 20:17:50 15° WSW visible
